Data supplied by UK-AIR on 3/5/2024
All Data GMT hour ending 
Status: R =Ratified P=Provisional,P*=As supplied
,,Hartlepool St Abbs Walk,,,,,,,,,,,,,,,,,,,,,,,
Date,time,"PM<sub>10</sub> particulate matter (Hourly measured)",status,unit,"Nitric oxide",status,unit,"Nitrogen dioxide",status,unit,"Nitrogen oxides as nitrogen dioxide",status,unit,"Ozone",status,unit,"PM<sub>2.5</sub> particulate matter (Hourly measured)",status,unit
 
01-01-2024,01:00,6.150,P,ugm-3 (FIDAS),0.85933,P,ugm-3,4.87090,P,ugm-3,6.18852,P,ugm-3,54.21652,P,ugm-3,5.212,P,ugm-3 (Ref.eq)
01-01-2024,02:00,4.125,P,ugm-3 (FIDAS),0.40920,P,ugm-3,3.02379,P,ugm-3,3.65123,P,ugm-3,57.74225,P,ugm-3,3.160,P,ugm-3 (Ref.eq)
01-01-2024,03:00,3.550,P,ugm-3 (FIDAS),0.33759,P,ugm-3,3.10265,P,ugm-3,3.62028,P,ugm-3,55.03143,P,ugm-3,2.830,P,ugm-3 (Ref.eq)
01-01-2024,04:00,3.575,P,ugm-3 (FIDAS),0.27621,P,ugm-3,2.63980,P,ugm-3,3.06332,P,ugm-3,53.23530,P,ugm-3,2.807,P,ugm-3 (Ref.eq)
01-01-2024,05:00,3.800,P,ugm-3 (FIDAS),0.39897,P,ugm-3,4.30812,P,ugm-3,4.91987,P,ugm-3,50.84046,P,ugm-3,2.877,P,ugm-3 (Ref.eq)
01-01-2024,06:00,2.725,P,ugm-3 (FIDAS),0.39897,P,ugm-3,4.07605,P,ugm-3,4.68781,P,ugm-3,47.79702,P,ugm-3,1.863,P,ugm-3 (Ref.eq)
01-01-2024,07:00,0.525,P,ugm-3 (FIDAS),0.36828,P,ugm-3,2.40580,P,ugm-3,2.97049,P,ugm-3,57.47616,P,ugm-3,0.354,P,ugm-3 (Ref.eq)
01-01-2024,08:00,0.500,P,ugm-3 (FIDAS),0.39897,P,ugm-3,2.12667,P,ugm-3,2.73842,P,ugm-3,64.31143,P,ugm-3,0.236,P,ugm-3 (Ref.eq)
01-01-2024,09:00,2.425,P,ugm-3 (FIDAS),0.46036,P,ugm-3,3.10007,P,ugm-3,3.80594,P,ugm-3,63.11401,P,ugm-3,1.274,P,ugm-3 (Ref.eq)
01-01-2024,10:00,4.200,P,ugm-3 (FIDAS),0.42967,P,ugm-3,2.12603,P,ugm-3,2.78484,P,ugm-3,63.96219,P,ugm-3,2.406,P,ugm-3 (Ref.eq)
01-01-2024,11:00,5.775,P,ugm-3 (FIDAS),0.61381,P,ugm-3,2.86478,P,ugm-3,3.80594,P,ugm-3,61.91659,P,ugm-3,3.278,P,ugm-3 (Ref.eq)
01-01-2024,12:00,6.525,P,ugm-3 (FIDAS),0.82864,P,ugm-3,3.51007,P,ugm-3,4.78063,P,ugm-3,61.01853,P,ugm-3,3.561,P,ugm-3 (Ref.eq)
01-01-2024,13:00,5.875,P,ugm-3 (FIDAS),0.79795,P,ugm-3,3.23223,P,ugm-3,4.45574,P,ugm-3,59.62154,P,ugm-3,3.184,P,ugm-3 (Ref.eq)
01-01-2024,14:00,5.275,P,ugm-3 (FIDAS),0.67519,P,ugm-3,3.46688,P,ugm-3,4.50215,P,ugm-3,61.26799,P,ugm-3,2.689,P,ugm-3 (Ref.eq)
01-01-2024,15:00,6.950,P,ugm-3 (FIDAS),1.04347,P,ugm-3,8.37902,P,ugm-3,9.97899,P,ugm-3,58.72347,P,ugm-3,4.575,P,ugm-3 (Ref.eq)
01-01-2024,16:00,10.175,P,ugm-3 (FIDAS),1.01278,P,ugm-3,18.86921,P,ugm-3,20.42212,P,ugm-3,52.28734,P,ugm-3,5.873,P,ugm-3 (Ref.eq)
01-01-2024,17:00,11.700,P,ugm-3 (FIDAS),0.67519,P,ugm-3,24.67803,P,ugm-3,25.71331,P,ugm-3,42.75787,P,ugm-3,6.958,P,ugm-3 (Ref.eq)
01-01-2024,18:00,13.225,P,ugm-3 (FIDAS),0.73657,P,ugm-3,20.68515,P,ugm-3,21.81454,P,ugm-3,45.45207,P,ugm-3,6.651,P,ugm-3 (Ref.eq)
01-01-2024,19:00,17.400,P,ugm-3 (FIDAS),0.89002,P,ugm-3,16.55109,P,ugm-3,17.91577,P,ugm-3,49.34368,P,ugm-3,7.807,P,ugm-3 (Ref.eq)
01-01-2024,20:00,46.075,P,ugm-3 (FIDAS),0.49105,P,ugm-3,12.89277,P,ugm-3,13.64569,P,ugm-3,49.84261,P,ugm-3,13.939,P,ugm-3 (Ref.eq)
01-01-2024,21:00,31.125,P,ugm-3 (FIDAS),0.70588,P,ugm-3,5.92617,P,ugm-3,7.00850,P,ugm-3,64.36133,P,ugm-3,11.061,P,ugm-3 (Ref.eq)
01-01-2024,22:00,38.025,P,ugm-3 (FIDAS),0.49105,P,ugm-3,6.16275,P,ugm-3,6.91567,P,ugm-3,57.47616,P,ugm-3,12.995,P,ugm-3 (Ref.eq)
01-01-2024,23:00,22.225,P,ugm-3 (FIDAS),0.49105,P,ugm-3,1.42853,P,ugm-3,2.18145,P,ugm-3,71.74542,P,ugm-3,7.783,P,ugm-3 (Ref.eq)
01-01-2024,24:00,23.075,P,ugm-3 (FIDAS),0.33759,P,ugm-3,0.59630,P,ugm-3,1.11393,P,ugm-3,80.27703,P,ugm-3,9.245,P,ugm-3 (Ref.eq)
02-01-2024,01:00,29.150,P,ugm-3 (FIDAS),0.12287,P,ugm-3,0.43134,P,ugm-3,0.61974,P,ugm-3,81.62413,P,ugm-3,10.613,P,ugm-3 (Ref.eq)
02-01-2024,02:00,45.300,P,ugm-3 (FIDAS),0.45053,P,ugm-3,0.54868,P,ugm-3,1.23948,P,ugm-3,76.36879,P,ugm-3,11.368,P,ugm-3 (Ref.eq)
02-01-2024,03:00,32.675,P,ugm-3 (FIDAS),0.46077,P,ugm-3,3.10490,P,ugm-3,3.81139,P,ugm-3,69.20090,P,ugm-3,8.160,P,ugm-3 (Ref.eq)
02-01-2024,04:00,2.025,P,ugm-3 (FIDAS),0.27646,P,ugm-3,5.89744,P,ugm-3,6.32134,P,ugm-3,55.68003,P,ugm-3,1.580,P,ugm-3 (Ref.eq)
02-01-2024,05:00,3.500,P,ugm-3 (FIDAS),0.30718,P,ugm-3,2.96855,P,ugm-3,3.43955,P,ugm-3,56.62799,P,ugm-3,2.618,P,ugm-3 (Ref.eq)
02-01-2024,06:00,5.950,P,ugm-3 (FIDAS),0.43005,P,ugm-3,7.47468,P,ugm-3,8.13407,P,ugm-3,49.94239,P,ugm-3,3.915,P,ugm-3 (Ref.eq)
02-01-2024,07:00,12.725,P,ugm-3 (FIDAS),1.53588,P,ugm-3,19.67673,P,ugm-3,22.03172,P,ugm-3,35.62325,P,ugm-3,6.745,P,ugm-3 (Ref.eq)
02-01-2024,08:00,92.000,P,ugm-3 (FIDAS),4.20832,P,ugm-3,42.02641,P,ugm-3,48.47908,P,ugm-3,21.05464,P,ugm-3,26.439,P,ugm-3 (Ref.eq)
02-01-2024,09:00,49.650,P,ugm-3 (FIDAS),36.27756,P,ugm-3,67.12997,P,ugm-3,122.75479,P,ugm-3,2.14538,P,ugm-3,21.651,P,ugm-3 (Ref.eq)
02-01-2024,10:00,20.675,P,ugm-3 (FIDAS),8.81597,P,ugm-3,54.99451,P,ugm-3,68.51214,P,ugm-3,16.56431,P,ugm-3,11.793,P,ugm-3 (Ref.eq)
02-01-2024,11:00,16.125,P,ugm-3 (FIDAS),5.62133,P,ugm-3,45.43747,P,ugm-3,54.05673,P,ugm-3,27.79012,P,ugm-3,9.316,P,ugm-3 (Ref.eq)
02-01-2024,12:00,23.550,P,ugm-3 (FIDAS),4.20832,P,ugm-3,38.63334,P,ugm-3,45.08601,P,ugm-3,29.38668,P,ugm-3,11.910,P,ugm-3 (Ref.eq)
02-01-2024,13:00,240.250,P,ugm-3 (FIDAS),5.49846,P,ugm-3,28.75348,P,ugm-3,37.18434,P,ugm-3,31.63185,P,ugm-3,64.080,P,ugm-3 (Ref.eq)
02-01-2024,14:00,145.450,P,ugm-3 (FIDAS),2.67244,P,ugm-3,17.56220,P,ugm-3,21.65988,P,ugm-3,44.15486,P,ugm-3,40.495,P,ugm-3 (Ref.eq)
02-01-2024,15:00,107.875,P,ugm-3 (FIDAS),1.53588,P,ugm-3,12.56523,P,ugm-3,14.92022,P,ugm-3,51.08992,P,ugm-3,31.580,P,ugm-3 (Ref.eq)
02-01-2024,16:00,104.875,P,ugm-3 (FIDAS),2.82603,P,ugm-3,28.90032,P,ugm-3,33.23350,P,ugm-3,35.57335,P,ugm-3,34.882,P,ugm-3 (Ref.eq)
02-01-2024,17:00,25.450,P,ugm-3 (FIDAS),16.21893,P,ugm-3,56.42558,P,ugm-3,81.29426,P,ugm-3,4.59011,P,ugm-3,14.599,P,ugm-3 (Ref.eq)
02-01-2024,18:00,22.775,P,ugm-3 (FIDAS),12.47137,P,ugm-3,57.33779,P,ugm-3,76.46029,P,ugm-3,5.03914,P,ugm-3,17.453,P,ugm-3 (Ref.eq)
02-01-2024,19:00,22.150,P,ugm-3 (FIDAS),17.35548,P,ugm-3,57.14635,P,ugm-3,83.75772,P,ugm-3,1.39699,P,ugm-3,18.844,P,ugm-3 (Ref.eq)
02-01-2024,20:00,12.150,P,ugm-3 (FIDAS),2.79531,P,ugm-3,32.94474,P,ugm-3,37.23082,P,ugm-3,20.85507,P,ugm-3,10.590,P,ugm-3 (Ref.eq)
02-01-2024,21:00,11.600,P,ugm-3 (FIDAS),1.13655,P,ugm-3,31.16545,P,ugm-3,32.90814,P,ugm-3,25.79442,P,ugm-3,9.976,P,ugm-3 (Ref.eq)
02-01-2024,22:00,11.325,P,ugm-3 (FIDAS),0.52220,P,ugm-3,24.71705,P,ugm-3,25.51775,P,ugm-3,36.07228,P,ugm-3,9.929,P,ugm-3 (Ref.eq)
02-01-2024,23:00,10.125,P,ugm-3 (FIDAS),0.55292,P,ugm-3,26.06437,P,ugm-3,26.91217,P,ugm-3,30.78367,P,ugm-3,8.632,P,ugm-3 (Ref.eq)
02-01-2024,24:00,6.875,P,ugm-3 (FIDAS),0.49148,P,ugm-3,11.05243,P,ugm-3,11.80603,P,ugm-3,41.80992,P,ugm-3,5.731,P,ugm-3 (Ref.eq)
03-01-2024,01:00,5.200,P,ugm-3 (FIDAS),0.32795,P,ugm-3,7.93767,P,ugm-3,8.44051,P,ugm-3,49.09422,P,ugm-3,4.151,P,ugm-3 (Ref.eq)
03-01-2024,02:00,4.525,P,ugm-3 (FIDAS),0.40993,P,ugm-3,5.20533,P,ugm-3,5.83388,P,ugm-3,53.41824,P,ugm-3,3.585,P,ugm-3 (Ref.eq)
03-01-2024,03:00,4.175,P,ugm-3 (FIDAS),0.21522,P,ugm-3,4.37125,P,ugm-3,4.70124,P,ugm-3,52.93594,P,ugm-3,3.019,P,ugm-3 (Ref.eq)
03-01-2024,04:00,3.225,P,ugm-3 (FIDAS),0.24596,P,ugm-3,3.81209,P,ugm-3,4.18922,P,ugm-3,53.98369,P,ugm-3,2.382,P,ugm-3 (Ref.eq)
03-01-2024,05:00,3.775,P,ugm-3 (FIDAS),0.24596,P,ugm-3,5.44123,P,ugm-3,5.81837,P,ugm-3,53.78412,P,ugm-3,2.146,P,ugm-3 (Ref.eq)
03-01-2024,06:00,2.875,P,ugm-3 (FIDAS),0.27671,P,ugm-3,8.41964,P,ugm-3,8.84392,P,ugm-3,47.44777,P,ugm-3,2.028,P,ugm-3 (Ref.eq)
03-01-2024,07:00,3.900,P,ugm-3 (FIDAS),0.30745,P,ugm-3,10.88603,P,ugm-3,11.35745,P,ugm-3,47.84691,P,ugm-3,2.524,P,ugm-3 (Ref.eq)
03-01-2024,08:00,4.325,P,ugm-3 (FIDAS),0.30745,P,ugm-3,16.14584,P,ugm-3,16.61726,P,ugm-3,44.10497,P,ugm-3,2.877,P,ugm-3 (Ref.eq)
03-01-2024,09:00,5.875,P,ugm-3 (FIDAS),1.44502,P,ugm-3,26.55034,P,ugm-3,28.76600,P,ugm-3,35.37378,P,ugm-3,3.679,P,ugm-3 (Ref.eq)
03-01-2024,10:00,7.000,P,ugm-3 (FIDAS),3.28972,P,ugm-3,33.45015,P,ugm-3,38.49431,P,ugm-3,23.79872,P,ugm-3,4.929,P,ugm-3 (Ref.eq)
03-01-2024,11:00,7.475,P,ugm-3 (FIDAS),3.22823,P,ugm-3,27.12096,P,ugm-3,32.07084,P,ugm-3,27.34109,P,ugm-3,5.094,P,ugm-3 (Ref.eq)
03-01-2024,12:00,9.225,P,ugm-3 (FIDAS),3.75089,P,ugm-3,24.17839,P,ugm-3,29.92968,P,ugm-3,29.53636,P,ugm-3,6.038,P,ugm-3 (Ref.eq)
03-01-2024,13:00,9.800,P,ugm-3 (FIDAS),2.85929,P,ugm-3,23.49743,P,ugm-3,27.88161,P,ugm-3,31.13292,P,ugm-3,6.557,P,ugm-3 (Ref.eq)
03-01-2024,14:00,12.475,P,ugm-3 (FIDAS),5.01144,P,ugm-3,31.46187,P,ugm-3,39.14597,P,ugm-3,20.95485,P,ugm-3,9.009,P,ugm-3 (Ref.eq)
03-01-2024,15:00,14.275,P,ugm-3 (FIDAS),8.33190,P,ugm-3,38.14694,P,ugm-3,50.92235,P,ugm-3,12.82237,P,ugm-3,10.165,P,ugm-3 (Ref.eq)
03-01-2024,16:00,16.225,P,ugm-3 (FIDAS),14.78836,P,ugm-3,44.58516,P,ugm-3,67.26032,P,ugm-3,4.68990,P,ugm-3,11.675,P,ugm-3 (Ref.eq)
03-01-2024,17:00,36.975,P,ugm-3 (FIDAS),38.86171,P,ugm-3,48.26213,P,ugm-3,107.84925,P,ugm-3,0.74839,P,ugm-3,17.618,P,ugm-3 (Ref.eq)
03-01-2024,18:00,153.875,P,ugm-3 (FIDAS),72.98868,P,ugm-3,51.32568,P,ugm-3,163.24010,P,ugm-3,0.74839,P,ugm-3,54.080,P,ugm-3 (Ref.eq)
03-01-2024,19:00,35.325,P,ugm-3 (FIDAS),14.32718,P,ugm-3,49.24877,P,ugm-3,71.21681,P,ugm-3,2.44473,P,ugm-3,24.080,P,ugm-3 (Ref.eq)
03-01-2024,20:00,24.100,P,ugm-3 (FIDAS),11.46789,P,ugm-3,50.18848,P,ugm-3,67.77234,P,ugm-3,2.04559,P,ugm-3,19.859,P,ugm-3 (Ref.eq)
03-01-2024,21:00,19.025,P,ugm-3 (FIDAS),3.22823,P,ugm-3,41.87634,P,ugm-3,46.82621,P,ugm-3,7.68345,P,ugm-3,16.085,P,ugm-3 (Ref.eq)
03-01-2024,22:00,15.350,P,ugm-3 (FIDAS),0.83012,P,ugm-3,32.38061,P,ugm-3,33.65343,P,ugm-3,17.96130,P,ugm-3,13.278,P,ugm-3 (Ref.eq)
03-01-2024,23:00,17.250,P,ugm-3 (FIDAS),0.92235,P,ugm-3,33.26321,P,ugm-3,34.67747,P,ugm-3,15.41678,P,ugm-3,15.000,P,ugm-3 (Ref.eq)
03-01-2024,24:00,16.350,P,ugm-3 (FIDAS),0.86086,P,ugm-3,32.47311,P,ugm-3,33.79307,P,ugm-3,11.72474,P,ugm-3,14.151,P,ugm-3 (Ref.eq)
04-01-2024,01:00,8.575,P,ugm-3 (FIDAS),0.49236,P,ugm-3,20.00358,P,ugm-3,20.75852,P,ugm-3,24.87973,P,ugm-3,7.099,P,ugm-3 (Ref.eq)
04-01-2024,02:00,6.200,P,ugm-3 (FIDAS),0.20515,P,ugm-3,9.07028,P,ugm-3,9.38484,P,ugm-3,43.37321,P,ugm-3,4.953,P,ugm-3 (Ref.eq)
04-01-2024,03:00,6.725,P,ugm-3 (FIDAS),0.24618,P,ugm-3,7.45359,P,ugm-3,7.83106,P,ugm-3,42.15916,P,ugm-3,5.307,P,ugm-3 (Ref.eq)
04-01-2024,04:00,5.800,P,ugm-3 (FIDAS),0.24618,P,ugm-3,5.82212,P,ugm-3,6.19959,P,ugm-3,42.35873,P,ugm-3,4.033,P,ugm-3 (Ref.eq)
04-01-2024,05:00,4.775,P,ugm-3 (FIDAS),0.36927,P,ugm-3,5.16725,P,ugm-3,5.73345,P,ugm-3,41.51056,P,ugm-3,3.420,P,ugm-3 (Ref.eq)
04-01-2024,06:00,5.225,P,ugm-3 (FIDAS),0.46159,P,ugm-3,9.36075,P,ugm-3,10.06850,P,ugm-3,36.32174,P,ugm-3,3.632,P,ugm-3 (Ref.eq)
04-01-2024,07:00,6.200,P,ugm-3 (FIDAS),0.46159,P,ugm-3,15.51372,P,ugm-3,16.22148,P,ugm-3,32.72948,P,ugm-3,4.882,P,ugm-3 (Ref.eq)
04-01-2024,08:00,5.950,P,ugm-3 (FIDAS),1.72325,P,ugm-3,28.86841,P,ugm-3,31.51069,P,ugm-3,28.63830,P,ugm-3,3.726,P,ugm-3 (Ref.eq)
04-01-2024,09:00,8.050,P,ugm-3 (FIDAS),5.13899,P,ugm-3,42.27640,P,ugm-3,50.15607,P,ugm-3,16.66410,P,ugm-3,4.646,P,ugm-3 (Ref.eq)
04-01-2024,10:00,12.250,P,ugm-3 (FIDAS),9.72407,P,ugm-3,47.36553,P,ugm-3,62.27556,P,ugm-3,14.91786,P,ugm-3,5.283,P,ugm-3 (Ref.eq)
04-01-2024,11:00,7.400,P,ugm-3 (FIDAS),7.04688,P,ugm-3,35.43548,P,ugm-3,46.24054,P,ugm-3,23.59915,P,ugm-3,4.599,P,ugm-3 (Ref.eq)
04-01-2024,12:00,5.850,P,ugm-3 (FIDAS),5.41594,P,ugm-3,24.18525,P,ugm-3,32.48957,P,ugm-3,32.87916,P,ugm-3,3.844,P,ugm-3 (Ref.eq)
04-01-2024,13:00,5.200,P,ugm-3 (FIDAS),4.12350,P,ugm-3,18.47574,P,ugm-3,24.79835,P,ugm-3,42.25895,P,ugm-3,3.278,P,ugm-3 (Ref.eq)
04-01-2024,14:00,7.500,P,ugm-3 (FIDAS),4.76972,P,ugm-3,25.92192,P,ugm-3,33.23539,P,ugm-3,36.27185,P,ugm-3,5.142,P,ugm-3 (Ref.eq)
04-01-2024,15:00,8.325,P,ugm-3 (FIDAS),3.38496,P,ugm-3,25.99419,P,ugm-3,31.18440,P,ugm-3,33.97679,P,ugm-3,5.000,P,ugm-3 (Ref.eq)
04-01-2024,16:00,8.725,P,ugm-3 (FIDAS),2.15407,P,ugm-3,27.88154,P,ugm-3,31.18440,P,ugm-3,33.82712,P,ugm-3,5.000,P,ugm-3 (Ref.eq)
04-01-2024,17:00,11.300,P,ugm-3 (FIDAS),1.78480,P,ugm-3,31.61746,P,ugm-3,34.35411,P,ugm-3,30.03529,P,ugm-3,7.005,P,ugm-3 (Ref.eq)
04-01-2024,18:00,14.700,P,ugm-3 (FIDAS),2.24638,P,ugm-3,42.23677,P,ugm-3,45.68118,P,ugm-3,20.90496,P,ugm-3,9.269,P,ugm-3 (Ref.eq)
04-01-2024,19:00,16.925,P,ugm-3 (FIDAS),2.06175,P,ugm-3,41.02824,P,ugm-3,44.18955,P,ugm-3,17.11313,P,ugm-3,11.486,P,ugm-3 (Ref.eq)
04-01-2024,20:00,21.400,P,ugm-3 (FIDAS),3.75423,P,ugm-3,44.67934,P,ugm-3,50.43575,P,ugm-3,13.07184,P,ugm-3,15.778,P,ugm-3 (Ref.eq)
04-01-2024,21:00,23.050,P,ugm-3 (FIDAS),5.78521,P,ugm-3,47.29867,P,ugm-3,56.16920,P,ugm-3,5.73764,P,ugm-3,17.005,P,ugm-3 (Ref.eq)
04-01-2024,22:00,21.025,P,ugm-3 (FIDAS),2.58488,P,ugm-3,41.99743,P,ugm-3,45.96086,P,ugm-3,7.73334,P,ugm-3,15.873,P,ugm-3 (Ref.eq)
04-01-2024,23:00,21.975,P,ugm-3 (FIDAS),0.73854,P,ugm-3,28.00100,P,ugm-3,29.13340,P,ugm-3,14.71829,P,ugm-3,16.793,P,ugm-3 (Ref.eq)
04-01-2024,24:00,23.475,P,ugm-3 (FIDAS),0.76931,P,ugm-3,21.33470,P,ugm-3,22.51429,P,ugm-3,19.50797,P,ugm-3,18.844,P,ugm-3 (Ref.eq)
05-01-2024,01:00,25.225,P,ugm-3 (FIDAS),2.01225,P,ugm-3,18.76081,P,ugm-3,21.84622,P,ugm-3,19.82395,P,ugm-3,17.642,P,ugm-3 (Ref.eq)
05-01-2024,02:00,42.225,P,ugm-3 (FIDAS),0.41066,P,ugm-3,21.15431,P,ugm-3,21.78398,P,ugm-3,21.48704,P,ugm-3,15.377,P,ugm-3 (Ref.eq)
05-01-2024,03:00,42.775,P,ugm-3 (FIDAS),0.18480,P,ugm-3,14.18743,P,ugm-3,14.47079,P,ugm-3,31.33249,P,ugm-3,14.741,P,ugm-3 (Ref.eq)
05-01-2024,04:00,22.175,P,ugm-3 (FIDAS),0.49280,P,ugm-3,10.35422,P,ugm-3,11.10983,P,ugm-3,40.71228,P,ugm-3,9.882,P,ugm-3 (Ref.eq)
05-01-2024,05:00,5.250,P,ugm-3 (FIDAS),0.27720,P,ugm-3,8.21076,P,ugm-3,8.63579,P,ugm-3,44.65379,P,ugm-3,3.962,P,ugm-3 (Ref.eq)
05-01-2024,06:00,8.025,P,ugm-3 (FIDAS),0.49280,P,ugm-3,10.82102,P,ugm-3,11.57663,P,ugm-3,41.80992,P,ugm-3,5.094,P,ugm-3 (Ref.eq)
05-01-2024,07:00,22.050,P,ugm-3 (FIDAS),0.64680,P,ugm-3,14.03921,P,ugm-3,15.03095,P,ugm-3,39.76432,P,ugm-3,7.995,P,ugm-3 (Ref.eq)
05-01-2024,08:00,37.225,P,ugm-3 (FIDAS),3.78837,P,ugm-3,31.30182,P,ugm-3,37.11057,P,ugm-3,25.94410,P,ugm-3,11.958,P,ugm-3 (Ref.eq)
05-01-2024,09:00,26.675,P,ugm-3 (FIDAS),10.25631,P,ugm-3,42.99726,P,ugm-3,58.72339,P,ugm-3,7.78323,P,ugm-3,10.590,P,ugm-3 (Ref.eq)
05-01-2024,10:00,20.600,P,ugm-3 (FIDAS),15.76946,P,ugm-3,42.19939,P,ugm-3,66.37890,P,ugm-3,5.78753,P,ugm-3,9.882,P,ugm-3 (Ref.eq)
05-01-2024,11:00,38.275,P,ugm-3 (FIDAS),5.38995,P,ugm-3,30.01308,P,ugm-3,38.27757,P,ugm-3,17.81162,P,ugm-3,13.585,P,ugm-3 (Ref.eq)
05-01-2024,12:00,71.850,P,ugm-3 (FIDAS),3.07997,P,ugm-3,20.29790,P,ugm-3,25.02046,P,ugm-3,35.32389,P,ugm-3,19.693,P,ugm-3 (Ref.eq)
05-01-2024,13:00,68.200,P,ugm-3 (FIDAS),1.78638,P,ugm-3,15.65282,P,ugm-3,18.39190,P,ugm-3,40.86196,P,ugm-3,19.010,P,ugm-3 (Ref.eq)
05-01-2024,14:00,67.875,P,ugm-3 (FIDAS),5.69795,P,ugm-3,19.45796,P,ugm-3,28.19470,P,ugm-3,37.41938,P,ugm-3,17.854,P,ugm-3 (Ref.eq)
05-01-2024,15:00,51.650,P,ugm-3 (FIDAS),3.78837,P,ugm-3,10.57592,P,ugm-3,16.38467,P,ugm-3,49.59315,P,ugm-3,14.198,P,ugm-3 (Ref.eq)
05-01-2024,16:00,41.350,P,ugm-3 (FIDAS),0.89319,P,ugm-3,4.32541,P,ugm-3,5.69496,P,ugm-3,53.83401,P,ugm-3,12.547,P,ugm-3 (Ref.eq)
05-01-2024,17:00,35.825,P,ugm-3 (FIDAS),1.01639,P,ugm-3,2.54939,P,ugm-3,4.10784,P,ugm-3,61.51745,P,ugm-3,10.755,P,ugm-3 (Ref.eq)
05-01-2024,18:00,57.600,P,ugm-3 (FIDAS),2.27918,P,ugm-3,6.68154,P,ugm-3,10.17623,P,ugm-3,61.86670,P,ugm-3,14.882,P,ugm-3 (Ref.eq)
05-01-2024,19:00,65.350,P,ugm-3 (FIDAS),1.47839,P,ugm-3,8.00276,P,ugm-3,10.26959,P,ugm-3,54.98154,P,ugm-3,17.453,P,ugm-3 (Ref.eq)
05-01-2024,20:00,80.000,P,ugm-3 (FIDAS),1.07799,P,ugm-3,8.42998,P,ugm-3,10.08287,P,ugm-3,54.43272,P,ugm-3,19.410,P,ugm-3 (Ref.eq)
05-01-2024,21:00,85.975,P,ugm-3 (FIDAS),1.32439,P,ugm-3,8.33225,P,ugm-3,10.36295,P,ugm-3,57.87530,P,ugm-3,19.977,P,ugm-3 (Ref.eq)
05-01-2024,22:00,75.775,P,ugm-3 (FIDAS),0.98559,P,ugm-3,6.61109,P,ugm-3,8.12231,P,ugm-3,57.47616,P,ugm-3,18.656,P,ugm-3 (Ref.eq)
05-01-2024,23:00,64.025,P,ugm-3 (FIDAS),1.75559,P,ugm-3,9.53829,P,ugm-3,12.23015,P,ugm-3,52.08777,P,ugm-3,16.887,P,ugm-3 (Ref.eq)
05-01-2024,24:00,22.025,P,ugm-3 (FIDAS),0.18480,P,ugm-3,18.62203,P,ugm-3,18.90538,P,ugm-3,33.77722,P,ugm-3,10.920,P,ugm-3 (Ref.eq)
06-01-2024,01:00,31.425,P,ugm-3 (FIDAS),1.10978,P,ugm-3,28.46542,P,ugm-3,30.16706,P,ugm-3,21.02137,P,ugm-3,14.646,P,ugm-3 (Ref.eq)
06-01-2024,02:00,41.300,P,ugm-3 (FIDAS),0.32882,P,ugm-3,11.83688,P,ugm-3,12.34107,P,ugm-3,36.85393,P,ugm-3,14.009,P,ugm-3 (Ref.eq)
06-01-2024,03:00,14.075,P,ugm-3 (FIDAS),0.36993,P,ugm-3,11.91410,P,ugm-3,12.48131,P,ugm-3,36.62110,P,ugm-3,10.637,P,ugm-3 (Ref.eq)
06-01-2024,04:00,9.450,P,ugm-3 (FIDAS),0.49323,P,ugm-3,10.69661,P,ugm-3,11.45289,P,ugm-3,32.77937,P,ugm-3,7.547,P,ugm-3 (Ref.eq)
06-01-2024,05:00,6.625,P,ugm-3 (FIDAS),0.33910,P,ugm-3,7.89442,P,ugm-3,8.41437,P,ugm-3,32.97894,P,ugm-3,5.000,P,ugm-3 (Ref.eq)
06-01-2024,06:00,5.850,P,ugm-3 (FIDAS),0.36993,P,ugm-3,7.19270,P,ugm-3,7.75991,P,ugm-3,32.72948,P,ugm-3,3.844,P,ugm-3 (Ref.eq)
06-01-2024,07:00,4.975,P,ugm-3 (FIDAS),0.67820,P,ugm-3,9.01061,P,ugm-3,10.05049,P,ugm-3,38.76647,P,ugm-3,3.113,P,ugm-3 (Ref.eq)
06-01-2024,08:00,6.950,P,ugm-3 (FIDAS),2.09624,P,ugm-3,23.10407,P,ugm-3,26.31826,P,ugm-3,22.10238,P,ugm-3,4.222,P,ugm-3 (Ref.eq)
06-01-2024,09:00,8.175,P,ugm-3 (FIDAS),5.45640,P,ugm-3,24.82364,P,ugm-3,33.18999,P,ugm-3,23.29980,P,ugm-3,4.953,P,ugm-3 (Ref.eq)
06-01-2024,10:00,13.625,P,ugm-3 (FIDAS),31.01206,P,ugm-3,42.06183,P,ugm-3,89.61298,P,ugm-3,2.74409,P,ugm-3,8.255,P,ugm-3 (Ref.eq)
06-01-2024,11:00,10.350,P,ugm-3 (FIDAS),19.35941,P,ugm-3,37.30367,P,ugm-3,66.98769,P,ugm-3,4.39054,P,ugm-3,6.604,P,ugm-3 (Ref.eq)
06-01-2024,12:00,7.050,P,ugm-3 (FIDAS),3.82256,P,ugm-3,23.68259,P,ugm-3,29.54377,P,ugm-3,28.03959,P,ugm-3,4.410,P,ugm-3 (Ref.eq)
06-01-2024,13:00,7.625,P,ugm-3 (FIDAS),3.29850,P,ugm-3,20.65293,P,ugm-3,25.71056,P,ugm-3,32.52991,P,ugm-3,4.552,P,ugm-3 (Ref.eq)
06-01-2024,14:00,24.675,P,ugm-3 (FIDAS),2.80527,P,ugm-3,21.17548,P,ugm-3,25.47683,P,ugm-3,33.77722,P,ugm-3,8.703,P,ugm-3 (Ref.eq)
06-01-2024,15:00,17.300,P,ugm-3 (FIDAS),2.06542,P,ugm-3,17.44827,P,ugm-3,20.61519,P,ugm-3,35.42368,P,ugm-3,6.604,P,ugm-3 (Ref.eq)
06-01-2024,16:00,20.850,P,ugm-3 (FIDAS),1.29474,P,ugm-3,15.82517,P,ugm-3,17.81041,P,ugm-3,40.66239,P,ugm-3,7.335,P,ugm-3 (Ref.eq)
06-01-2024,17:00,14.675,P,ugm-3 (FIDAS),1.57218,P,ugm-3,25.35676,P,ugm-3,27.76740,P,ugm-3,32.67959,P,ugm-3,6.675,P,ugm-3 (Ref.eq)
06-01-2024,18:00,15.675,P,ugm-3 (FIDAS),1.17143,P,ugm-3,18.30482,P,ugm-3,20.10098,P,ugm-3,43.15701,P,ugm-3,7.146,P,ugm-3 (Ref.eq)
06-01-2024,19:00,33.050,P,ugm-3 (FIDAS),1.94211,P,ugm-3,28.57601,P,ugm-3,31.55387,P,ugm-3,28.68819,P,ugm-3,12.854,P,ugm-3 (Ref.eq)
06-01-2024,20:00,26.975,P,ugm-3 (FIDAS),1.91128,P,ugm-3,29.88544,P,ugm-3,32.81602,P,ugm-3,24.44733,P,ugm-3,11.627,P,ugm-3 (Ref.eq)
06-01-2024,21:00,30.050,P,ugm-3 (FIDAS),1.17143,P,ugm-3,25.97124,P,ugm-3,27.76740,P,ugm-3,25.74453,P,ugm-3,11.675,P,ugm-3 (Ref.eq)
06-01-2024,22:00,25.400,P,ugm-3 (FIDAS),0.89399,P,ugm-3,19.61841,P,ugm-3,20.98917,P,ugm-3,31.78152,P,ugm-3,9.245,P,ugm-3 (Ref.eq)
06-01-2024,23:00,27.325,P,ugm-3 (FIDAS),1.29474,P,ugm-3,15.91866,P,ugm-3,17.90390,P,ugm-3,44.55400,P,ugm-3,9.552,P,ugm-3 (Ref.eq)
06-01-2024,24:00,18.775,P,ugm-3 (FIDAS),0.58572,P,ugm-3,20.74553,P,ugm-3,21.64362,P,ugm-3,35.57335,P,ugm-3,8.208,P,ugm-3 (Ref.eq)
07-01-2024,01:00,29.075,P,ugm-3 (FIDAS),0.41139,P,ugm-3,15.22320,P,ugm-3,15.85400,P,ugm-3,37.45264,P,ugm-3,9.764,P,ugm-3 (Ref.eq)
07-01-2024,02:00,18.450,P,ugm-3 (FIDAS),0.24684,P,ugm-3,12.85400,P,ugm-3,13.23247,P,ugm-3,40.37966,P,ugm-3,7.311,P,ugm-3 (Ref.eq)
07-01-2024,03:00,11.125,P,ugm-3 (FIDAS),0.21598,P,ugm-3,12.91691,P,ugm-3,13.24808,P,ugm-3,36.12217,P,ugm-3,5.590,P,ugm-3 (Ref.eq)
07-01-2024,04:00,12.225,P,ugm-3 (FIDAS),0.27769,P,ugm-3,11.69878,P,ugm-3,12.12456,P,ugm-3,37.12002,P,ugm-3,5.377,P,ugm-3 (Ref.eq)
07-01-2024,05:00,14.150,P,ugm-3 (FIDAS),0.37025,P,ugm-3,10.99509,P,ugm-3,11.56281,P,ugm-3,37.56905,P,ugm-3,5.708,P,ugm-3 (Ref.eq)
07-01-2024,06:00,8.725,P,ugm-3 (FIDAS),0.43196,P,ugm-3,10.66641,P,ugm-3,11.32874,P,ugm-3,35.02454,P,ugm-3,4.505,P,ugm-3 (Ref.eq)
07-01-2024,07:00,10.050,P,ugm-3 (FIDAS),0.43196,P,ugm-3,11.93036,P,ugm-3,12.59269,P,ugm-3,35.17421,P,ugm-3,4.764,P,ugm-3 (Ref.eq)
07-01-2024,08:00,6.625,P,ugm-3 (FIDAS),0.33940,P,ugm-3,12.07229,P,ugm-3,12.59269,P,ugm-3,35.02454,P,ugm-3,3.585,P,ugm-3 (Ref.eq)
07-01-2024,09:00,5.550,P,ugm-3 (FIDAS),0.70965,P,ugm-3,14.03248,P,ugm-3,15.12059,P,ugm-3,33.37808,P,ugm-3,3.396,P,ugm-3 (Ref.eq)
07-01-2024,10:00,8.125,P,ugm-3 (FIDAS),1.51187,P,ugm-3,18.27955,P,ugm-3,20.59771,P,ugm-3,32.28045,P,ugm-3,4.434,P,ugm-3 (Ref.eq)
07-01-2024,11:00,8.475,P,ugm-3 (FIDAS),1.91298,P,ugm-3,20.23924,P,ugm-3,23.17243,P,ugm-3,29.73593,P,ugm-3,5.283,P,ugm-3 (Ref.eq)
07-01-2024,12:00,7.825,P,ugm-3 (FIDAS),3.54826,P,ugm-3,20.44699,P,ugm-3,25.88758,P,ugm-3,27.69034,P,ugm-3,5.542,P,ugm-3 (Ref.eq)
07-01-2024,13:00,8.950,P,ugm-3 (FIDAS),3.02374,P,ugm-3,20.26818,P,ugm-3,24.90451,P,ugm-3,28.18926,P,ugm-3,6.627,P,ugm-3 (Ref.eq)
07-01-2024,14:00,9.000,P,ugm-3 (FIDAS),2.09810,P,ugm-3,20.56395,P,ugm-3,23.78100,P,ugm-3,27.39098,P,ugm-3,6.722,P,ugm-3 (Ref.eq)
07-01-2024,15:00,9.425,P,ugm-3 (FIDAS),0.92563,P,ugm-3,20.58282,P,ugm-3,22.00210,P,ugm-3,30.73378,P,ugm-3,6.840,P,ugm-3 (Ref.eq)
07-01-2024,16:00,9.350,P,ugm-3 (FIDAS),1.97469,P,ugm-3,27.07294,P,ugm-3,30.10075,P,ugm-3,24.89636,P,ugm-3,7.500,P,ugm-3 (Ref.eq)
07-01-2024,17:00,8.750,P,ugm-3 (FIDAS),1.11076,P,ugm-3,33.31297,P,ugm-3,35.01611,P,ugm-3,26.19356,P,ugm-3,7.123,P,ugm-3 (Ref.eq)
07-01-2024,18:00,8.850,P,ugm-3 (FIDAS),1.20332,P,ugm-3,35.04356,P,ugm-3,36.88863,P,ugm-3,22.75098,P,ugm-3,6.863,P,ugm-3 (Ref.eq)
07-01-2024,19:00,9.950,P,ugm-3 (FIDAS),1.35760,P,ugm-3,30.82791,P,ugm-3,32.90953,P,ugm-3,26.34324,P,ugm-3,8.231,P,ugm-3 (Ref.eq)
07-01-2024,20:00,12.625,P,ugm-3 (FIDAS),4.35048,P,ugm-3,36.49093,P,ugm-3,43.16157,P,ugm-3,17.11313,P,ugm-3,8.679,P,ugm-3 (Ref.eq)
07-01-2024,21:00,14.150,P,ugm-3 (FIDAS),2.31408,P,ugm-3,37.03864,P,ugm-3,40.58686,P,ugm-3,17.96130,P,ugm-3,9.458,P,ugm-3 (Ref.eq)
07-01-2024,22:00,18.350,P,ugm-3 (FIDAS),2.37579,P,ugm-3,39.37830,P,ugm-3,43.02113,P,ugm-3,14.01979,P,ugm-3,13.703,P,ugm-3 (Ref.eq)
07-01-2024,23:00,21.650,P,ugm-3 (FIDAS),2.34494,P,ugm-3,39.33198,P,ugm-3,42.92751,P,ugm-3,5.58796,P,ugm-3,17.972,P,ugm-3 (Ref.eq)
07-01-2024,24:00,21.975,P,ugm-3 (FIDAS),2.86946,P,ugm-3,36.46795,P,ugm-3,40.86773,P,ugm-3,4.39054,P,ugm-3,18.208,P,ugm-3 (Ref.eq)
08-01-2024,01:00,8.200,P,ugm-3 (FIDAS),0.98822,P,ugm-3,24.61226,P,ugm-3,26.12751,P,ugm-3,11.04287,P,ugm-3,5.142,P,ugm-3 (Ref.eq)
08-01-2024,02:00,5.825,P,ugm-3 (FIDAS),,,,,,,,,,74.24004,P,ugm-3,2.311,P,ugm-3 (Ref.eq)
08-01-2024,03:00,6.025,P,ugm-3 (FIDAS),,,,,,,,,,76.23574,P,ugm-3,2.500,P,ugm-3 (Ref.eq)
08-01-2024,04:00,8.950,P,ugm-3 (FIDAS),,,,,,,,,,77.93209,P,ugm-3,3.349,P,ugm-3 (Ref.eq)
08-01-2024,05:00,11.700,P,ugm-3 (FIDAS),,,,,,,,,,79.57854,P,ugm-3,3.986,P,ugm-3 (Ref.eq)
08-01-2024,06:00,11.950,P,ugm-3 (FIDAS),,,,,,,,,,78.43101,P,ugm-3,3.703,P,ugm-3 (Ref.eq)
08-01-2024,07:00,13.475,P,ugm-3 (FIDAS),,,,,,,,,,77.28348,P,ugm-3,3.868,P,ugm-3 (Ref.eq)
08-01-2024,08:00,14.875,P,ugm-3 (FIDAS),,,,,,,,,,77.53295,P,ugm-3,4.505,P,ugm-3 (Ref.eq)
08-01-2024,09:00,15.075,P,ugm-3 (FIDAS),,,,,,,,,,79.27918,P,ugm-3,4.811,P,ugm-3 (Ref.eq)
08-01-2024,10:00,17.750,P,ugm-3 (FIDAS),,,,,,,,,,80.62628,P,ugm-3,5.283,P,ugm-3 (Ref.eq)
08-01-2024,11:00,11.975,P,ugm-3 (FIDAS),,,,,,,,,,77.63273,P,ugm-3,4.198,P,ugm-3 (Ref.eq)
08-01-2024,12:00,10.750,P,ugm-3 (FIDAS),,,,,,,,,,76.03617,P,ugm-3,3.915,P,ugm-3 (Ref.eq)
08-01-2024,13:00,8.575,P,ugm-3 (FIDAS),,,,,,,,,,74.68907,P,ugm-3,3.278,P,ugm-3 (Ref.eq)
08-01-2024,14:00,9.475,P,ugm-3 (FIDAS),,,,,,,,,,73.79101,P,ugm-3,3.561,P,ugm-3 (Ref.eq)
08-01-2024,15:00,10.275,P,ugm-3 (FIDAS),,,,,,,,,,70.71430,P,ugm-3,4.057,P,ugm-3 (Ref.eq)
08-01-2024,16:00,14.925,P,ugm-3 (FIDAS),,,,,,,,,,77.38327,P,ugm-3,5.259,P,ugm-3 (Ref.eq)
08-01-2024,17:00,23.400,P,ugm-3 (FIDAS),,,,,,,,,,79.12951,P,ugm-3,7.382,P,ugm-3 (Ref.eq)
08-01-2024,18:00,24.825,P,ugm-3 (FIDAS),,,,,,,,,,80.87574,P,ugm-3,7.995,P,ugm-3 (Ref.eq)
08-01-2024,19:00,28.600,P,ugm-3 (FIDAS),,,,,,,,,,81.72392,P,ugm-3,8.609,P,ugm-3 (Ref.eq)
08-01-2024,20:00,28.200,P,ugm-3 (FIDAS),,,,,,,,,,82.77166,P,ugm-3,8.679,P,ugm-3 (Ref.eq)